C/2023 E1 ( ATLAS )

Japanese version
Home page
Updated on May 13, 2023

---------------------------------------------------------------------

* Profile

Discovery Date March 1, 2023
Magnitude 18.8 mag
Discoverer Asteroid Terrestrial-Impact Last Alert System (ATLAS) search program

* Pictures

* Orbital Elements

Epoch 2023 Feb. 25.0 TT = JDT 2460000.5
T 2023 July 1.10670 TT                                  Rudenko
q   1.0265963            (2000.0)            P               Q
n   0.01157756     Peri.  105.89373     +0.06328260     +0.98427864
a  19.3519525      Node   164.57537     -0.97142783     +0.02288074
e   0.9469513      Incl.   38.31469     +0.22874283     -0.17513431
P  85.1
>From 524 observations 2022 Dec. 25-2023 May 2, mean residual 0".4.

* Finding Charts

* Magnitudes Graph

        m1 = 10.0 + 5 log d + 21.0 log r

---------------------------------------------------------------------

The orbital elements are published on M.P.E.C. 2023-J29.
The charts are made with StellaNavigator Ver.11 (AstroArts).
The magnitudes graphs are made with Comet for Windows.

---------------------------------------------------------------------

Copyright(C) Seiichi Yoshida (comet@aerith.net). All rights reserved.